Bar Harbor, ME

10:11 AM EDT on August 22, 2019 (GMT -0400)
Hancock County-Bar Harbor

Weather History for KBHB - June, 2019

Change the Weather History Date:

Sunday, June 2, 2019

  Actual Average Record
Temperature  
Mean Temperature 56 °F -  
Max Temperature 63 °F 69 °F 82 °F (1970)
Min Temperature 48 °F 47 °F 38 °F (1966)
Degree Days  
Heating Degree Days 10    
Growing Degree Days 6 (Base 50)    
Moisture  
Dew Point 50 °F    
Average Humidity 93    
Maximum Humidity 100    
Minimum Humidity 72    
Precipitation  
Precipitation 0.01 in - - ()
Sea Level Pressure  
Sea Level Pressure 29.81 in    
Wind  
Wind Speed 5 mph (ESE)    
Max Wind Speed 10 mph    
Max Gust Speed -    
Visibility 6 miles    
Events Fog , Rain    
Averages and records for this station are not official NWS values.
T = Trace of Precipitation, MM = Missing Value Source: NWS Daily Summary

Daily Weather History Graph

Daily Weather History Graph

Search for Another Location

Airport or City:

Astronomy

Jun. 02, 2019 Rise Set
Actual Time 4:51 AM EDT 8:11 PM EDT
Civil Twilight 4:15 AM EDT 8:47 PM EDT
Nautical Twilight 3:29 AM EDT 9:34 PM EDT
Astronomical Twilight 2:31 AM EDT 10:32 PM EDT
Moon 4:34 AM EDT (6/2) 7:23 PM EDT (6/2)
Length of Visible Light 16h 31m
Length of Day
15h 20m
Waning Crescent, 1% of the Moon is Illuminated
Jun 2
Waning Crescent
Jun 3
New
Jun 10
First Quarter
Jun 17
Full
Jun 25
Last Quarter

Hourly Weather History & Observations

Time (EDT) Temp. Dew Point Humidity Pressure Visibility Wind Dir Wind Speed Gust Speed Precip Events Conditions
12:34 AM 48.2 °F 48.2 °F 100% 29.89 in 10.0 mi ESE 4.6 mph - N/A   Overcast
12:56 AM 48.9 °F 48.0 °F 97% 29.90 in 10.0 mi SE 5.8 mph - N/A   Overcast
1:56 AM 48.9 °F 48.0 °F 97% 29.89 in 10.0 mi Calm Calm - N/A   Overcast
2:28 AM 48.2 °F 48.2 °F 100% 29.87 in 1.8 mi East 3.5 mph - N/A   Overcast
2:48 AM 48.2 °F 48.2 °F 100% 29.88 in 0.8 mi Calm Calm - N/A   Overcast
2:56 AM 48.9 °F 48.0 °F 97% 29.89 in 0.5 mi Calm Calm - N/A Fog Fog
3:12 AM 48.2 °F 48.2 °F 100% 29.87 in 0.8 mi Calm Calm - N/A   Overcast
3:56 AM 48.9 °F 48.0 °F 97% 29.88 in 1.5 mi Variable 4.6 mph - N/A   Overcast
4:06 AM 48.2 °F 48.2 °F 100% 29.86 in 3.0 mi ESE 5.8 mph - N/A   Overcast
4:56 AM 48.0 °F 48.0 °F 100% 29.86 in 10.0 mi ESE 6.9 mph - N/A   Overcast
5:34 AM 48.2 °F 48.2 °F 100% 29.84 in 1.8 mi East 6.9 mph - N/A   Overcast
5:37 AM 48.2 °F 48.2 °F 100% 29.84 in 0.8 mi East 6.9 mph - N/A   Overcast
5:50 AM 48.2 °F 48.2 °F 100% 29.84 in 0.5 mi East 5.8 mph - N/A Fog Fog
5:56 AM 48.0 °F 48.0 °F 100% 29.86 in 0.2 mi East 4.6 mph - N/A Fog Fog
6:56 AM 48.9 °F 48.9 °F 100% 29.85 in 0.2 mi East 8.1 mph - N/A Fog Fog
7:21 AM 48.2 °F 48.2 °F 100% 29.83 in 0.5 mi ESE 6.9 mph - 0.00 in Fog , Rain Light Rain
7:34 AM 48.2 °F 48.2 °F 100% 29.83 in 1.0 mi ESE 6.9 mph - 0.00 in Rain Light Rain
7:47 AM 48.2 °F 48.2 °F 100% 29.83 in 2.0 mi ESE 5.8 mph - 0.00 in   Overcast
7:56 AM 50.0 °F 50.0 °F 100% 29.84 in 7.0 mi ESE 5.8 mph - 0.00 in   Overcast
8:56 AM 51.1 °F 50.0 °F 96% 29.84 in 5.0 mi East 5.8 mph - N/A   Overcast
9:17 AM 51.8 °F 50.0 °F 94% 29.82 in 1.8 mi East 6.9 mph - N/A   Overcast
9:22 AM 51.8 °F 50.0 °F 94% 29.82 in 1.0 mi East 6.9 mph - N/A   Overcast
9:36 AM 51.8 °F 51.8 °F 100% 29.82 in 0.5 mi East 5.8 mph - N/A Fog Fog
9:56 AM 52.0 °F 52.0 °F 100% 29.83 in 0.5 mi East 8.1 mph - N/A Fog Fog
10:18 AM 51.8 °F 51.8 °F 100% 29.81 in 1.0 mi East 5.8 mph - N/A   Overcast
10:22 AM 51.8 °F 51.8 °F 100% 29.81 in 2.0 mi East 5.8 mph - N/A   Overcast
10:35 AM 53.6 °F 51.8 °F 94% 29.81 in 10.0 mi East 4.6 mph - N/A   Overcast
10:56 AM 54.0 °F 52.0 °F 93% 29.82 in 10.0 mi ESE 6.9 mph - N/A   Overcast
11:14 AM 55.4 °F 53.6 °F 94% 29.79 in 10.0 mi East 6.9 mph - N/A   Overcast
11:37 AM 57.2 °F 53.6 °F 88% 29.79 in 10.0 mi East 5.8 mph - N/A   Overcast
11:56 AM 57.9 °F 54.0 °F 87% 29.80 in 10.0 mi East 5.8 mph - N/A   Overcast
12:35 PM 60.8 °F 55.4 °F 82% 29.77 in 10.0 mi Variable 5.8 mph - N/A   Partly Cloudy
12:56 PM 60.1 °F 55.0 °F 83% 29.78 in 10.0 mi East 3.5 mph - N/A   Partly Cloudy
1:56 PM 63.0 °F 54.0 °F 72% 29.77 in 10.0 mi East 9.2 mph - N/A   Clear
2:56 PM 62.1 °F 53.1 °F 72% 29.75 in 10.0 mi East 10.4 mph - N/A   Clear
3:56 PM 60.1 °F 52.0 °F 75% 29.73 in 10.0 mi East 8.1 mph - N/A   Clear
4:56 PM 61.0 °F 53.1 °F 75% 29.71 in 10.0 mi ESE 5.8 mph - N/A   Overcast
5:56 PM 59.0 °F 52.0 °F 78% 29.70 in 10.0 mi SE 6.9 mph - N/A   Partly Cloudy
6:56 PM 57.9 °F 51.1 °F 78% 29.71 in 10.0 mi SE 5.8 mph - N/A   Scattered Clouds
7:56 PM 55.9 °F 51.1 °F 84% 29.72 in 10.0 mi SE 5.8 mph - N/A   Overcast
8:15 PM 55.4 °F 50.0 °F 82% 29.70 in 10.0 mi SE 5.8 mph - N/A   Overcast
8:56 PM 54.0 °F 50.0 °F 86% 29.72 in 10.0 mi East 5.8 mph - N/A   Overcast
9:56 PM 53.1 °F 48.9 °F 86% 29.71 in 10.0 mi ESE 4.6 mph - N/A   Overcast
10:56 PM 52.0 °F 50.0 °F 93% 29.70 in 10.0 mi East 4.6 mph - 0.01 in Rain Light Rain
11:56 PM 52.0 °F 50.0 °F 93% 29.70 in 10.0 mi SSW 6.9 mph - 0.00 in   Overcast